Location: Jabiru
(12.6667°S, 132.8333°E)
Time: 21:28:49
(UTC+09:30)

Envisat - Pass Details

Date: 29 October 2019
Orbit: 764 x 766 km, 98.1° (Epoch: 17 November)

Event Time Altitude Azimuth Distance (km) Brightness Sun altitude
Rises 19:27:28 0° 174° (S) 3,244 6.4 -12.4°
Reaches altitude 10° 19:29:48 10° 176° (S) 2,313 5.7 -12.9°
Maximum altitude 19:34:50 64° 257° (WSW) 846 3.5 -14.1°
Drops below altitude 10° 19:39:51 10° 338° (NNW) 2,294 5.5 -15.3°
Sets 19:42:09 0° 341° (NNW) 3,214 6.2 -15.8°
